This is the latest recevied weather packets stored in our database for station/object KC5DAQ-27. If no packets are shown the sender has not sent any weather packets the latest 10 day(s).
| Time | Temp. | Humidity | Pressure | Rain* | Wind** | Luminosity | Snow |
|---|---|---|---|---|---|---|---|
| 1778353309 | 30.56° C | 72% | 1000.7 hPa | 0 mm | - | 1211 W/m² | - |
| 1778353249 | 30° C | 73% | 1000.7 hPa | 0 mm | - | 1104 W/m² | - |
| 1778353186 | 30° C | 72% | 1000.7 hPa | 0 mm | - | 1027 W/m² | - |
| 1778353125 | 30° C | 72% | 1000.6 hPa | 0 mm | - | 1150 W/m² | - |
| 1778353065 | 30° C | 72% | 1000.7 hPa | 0 mm | - | 1143 W/m² | - |
| 1778353006 | 30° C | 72% | 1000.7 hPa | 0 mm | - | 916 W/m² | - |
| 1778352947 | 30° C | 73% | 1000.7 hPa | 0 mm | - | 1192 W/m² | - |
| 1778352886 | 30° C | 72% | 1000.7 hPa | 0 mm | - | 1201 W/m² | - |
| 1778352827 | 30° C | 73% | 1000.7 hPa | 0 mm | - | 1204 W/m² | - |
| 1778352765 | 30° C | 73% | 1000.7 hPa | 0 mm | - | 1208 W/m² | - |
| 1778352705 | 30° C | 72% | 1000.8 hPa | 0 mm | - | 937 W/m² | - |
| 1778352645 | 30° C | 72% | 1000.8 hPa | 0 mm | - | 965 W/m² | - |
| 1778352586 | 30° C | 73% | 1000.8 hPa | 0 mm | - | 1173 W/m² | - |
| 1778352526 | 30° C | 73% | 1000.9 hPa | 0 mm | - | 1215 W/m² | - |
| 1778352466 | 30° C | 73% | 1000.9 hPa | 0 mm | - | 1220 W/m² | - |
| 1778352406 | 30° C | 73% | 1000.8 hPa | 0 mm | - | 1218 W/m² | - |
| 1778352345 | 30° C | 73% | 1000.8 hPa | 0 mm | - | 858 W/m² | - |
| 1778352286 | 30° C | 75% | 1000.9 hPa | 0 mm | - | 1095 W/m² | - |
| 1778352227 | 30° C | 74% | 1000.8 hPa | 0 mm | - | 1152 W/m² | - |
| 1778352166 | 29.44° C | 75% | 1000.8 hPa | 0 mm | - | 1152 W/m² | - |
| 1778352106 | 30° C | 75% | 1000.8 hPa | 0 mm | - | 1206 W/m² | - |
| 1778352045 | 29.44° C | 75% | 1000.9 hPa | 0 mm | - | 1211 W/m² | - |
| 1778351987 | 29.44° C | 75% | 1000.7 hPa | 0 mm | - | 1206 W/m² | - |
| 1778351926 | 29.44° C | 75% | 1000.9 hPa | 0 mm | - | 1208 W/m² | - |
| 1778351865 | 29.44° C | 75% | 1000.8 hPa | 0 mm | - | 1210 W/m² | - |
* Rain latest hour (hover to see other rain measurements)
** Current wind speed in m/s (hover to see current wind gust speed)